DECAYED

STARLINK-30159, 57440 (Decayed)

Orbit data source: Space-Track

STARLINK-30159, 57440 was a payload satellite owned by SpaceX/Seattle (US) in LEO that was launched on Mon, 24 Jul 2023 UTC via an FALCON 9 launch vehicle from the Air Force Eastern Test Range (AFETR). Payload-class satellites include a variety of spacecraft equipped with specific instruments for various scientific and technological missions. These include communications satellites like Starlink; space stations such as the ISS; scientific satellites like the Hubble; Earth observation satellites from companies like Planet Labs, Umbra, and HawkEye 360; GPS; miniature CubeSats for education and research; and military/defense satellites.

Not visible in the next 10 days
Identifier
57440, 2023-105L
Orbit
Decayed
Country
Flag of USUS
Related business
Manufacturer
SpaceX/Seattle
Mission
Decayed Commercial Communications
Bus & Motor
STARLINK V2M, Unknown motor
Mass
730 kg wet, ~700 kg dry
Launch date (UTC)
2023-07-24 (3 years ago)
Launch vehicle
FALCON 9
Launch site
Air Force Eastern Test Range (AFETR)
Object type
Payload
Rocket body
Debris
Shape & HBR
Box + 2 Pan, 17.7 m
Radar Cross Section
33.884 m², Large (>1 m²)

Expand to show TLE details & history
Last TLE update: 5 months ago

TLE from 5 months ago
0 STARLINK-30159
1 57440U 23105L   26012.80405711  .05160981  68116-1  49232-2 0  9993
2 57440  42.9903 173.2905 0003223 282.3684  77.6839 16.15549679137362
Epoch: 2026-01-12T19:17Z
TLE epoch observation values (Epoch: 2026-01-12T19:17:50.534Z)
Latitude
-0.00001°
Longitude
131.53443°
Altitude
230.975 km
Speed
7.77 km/s
True Right ascension
11h 33m 09s
True Declination
0° 00' 00"
Sunlit
Object was in full shadow at epoch
Visualization orbit readout
Latitude
Unknown
Longitude
Unknown
Altitude
Unknown
Speed
Unknown
Apparent Right ascension
Unknown
Apparent Declination
Unknown
Sunlit
N/A
Visualization observer readout
Local Sidereal Time
00:27:50
Azimuth
Unknown
Elevation
Unknown
Doppler factor
Unknown
Orbital elements
Apogee altitude
235.814 km
Perigee altitude
231.552 km
Semi-major axis
6,611.82 km
Eccentricity
0.00032
Inclination
42.9903°
RAAN
173.2905°
Arg. of periapsis
282.3684°
True anomaly
77.71999°
Mean anomaly
77.6839°
Eccentric anomaly
77.70194°
Mean motion
4.03703 °/min
Orbital period
89.17 mins
BSTAR
0.0049232
Loading maneuver chart data...
Computing Atmospheric mass density...
Loading historical data...
Loading historical data...
Loading historical data...
Loading historical data...
Loading historical data...
Loading historical data...
Loading historical data...

Documentation

Showing up to 5 results
|